N673EX KAXN-KBHK

Flight info

Callsign N673EX
Flight time 2h 26m
Altitude 10000
Route DAYAV DUXHO BIS V2 SAILM BUFFF
Aircraft C208/L-SDFGR/C

Departure

Time 2026-04-25 04:55
Airport Chandler Field (KAXN)

Arrival

Time 2026-04-25 07:22
Airport Baker Municipal Airport (KBHK)
Time Latitude Longitude Altitude Speed Heading
2026-04-25 04:44 45.86505 -95.39082 1430 ft 0 kts 86°
2026-04-25 04:52 45.86505 -95.39079 1430 ft 1 kts 110°
2026-04-25 04:52 45.86496 -95.39073 1430 ft 0 kts 163°
2026-04-25 04:53 45.86466 -95.39067 1431 ft 9 kts 172°
2026-04-25 04:53 45.86395 -95.38995 1431 ft 17 kts 140°
2026-04-25 04:53 45.86301 -95.38928 1432 ft 12 kts 197°
2026-04-25 04:53 45.86239 -95.38865 1432 ft 14 kts 141°
2026-04-25 04:54 45.86158 -95.38839 1433 ft 10 kts 204°
2026-04-25 04:54 45.86119 -95.38916 1433 ft 11 kts 277°
2026-04-25 04:54 45.86208 -95.39037 1434 ft 32 kts 319°
2026-04-25 04:54 45.86487 -95.39381 1430 ft 72 kts 319°
2026-04-25 04:55 45.86936 -95.39930 1456 ft 98 kts 320°
2026-04-25 04:55 45.87420 -95.40692 1627 ft 108 kts 304°
2026-04-25 04:55 45.87820 -95.41638 1869 ft 112 kts 303°
2026-04-25 04:55 45.88255 -95.42581 2157 ft 114 kts 306°
2026-04-25 04:56 45.88722 -95.43515 2456 ft 115 kts 307°
2026-04-25 04:56 45.89188 -95.44427 2746 ft 112 kts 309°
2026-04-25 04:56 45.89641 -95.45310 3025 ft 108 kts 309°
2026-04-25 04:56 45.90068 -95.46152 3354 ft 104 kts 310°
2026-04-25 04:57 45.90488 -95.46974 3673 ft 100 kts 310°
2026-04-25 04:57 45.90895 -95.47762 3991 ft 97 kts 310°
2026-04-25 04:57 45.91296 -95.48521 4309 ft 94 kts 310°
2026-04-25 04:57 45.91680 -95.49256 4615 ft 90 kts 310°
2026-04-25 04:58 45.92047 -95.49962 4899 ft 89 kts 309°
2026-04-25 04:58 45.92429 -95.50690 5091 ft 94 kts 308°
2026-04-25 04:58 45.92830 -95.51457 5301 ft 98 kts 307°
2026-04-25 04:58 45.93251 -95.52265 5515 ft 104 kts 307°
2026-04-25 04:59 45.93696 -95.53117 5730 ft 109 kts 306°
2026-04-25 04:59 45.94163 -95.54007 5941 ft 114 kts 305°
2026-04-25 04:59 45.94647 -95.54930 6153 ft 117 kts 304°
2026-04-25 04:59 45.95142 -95.55879 6356 ft 120 kts 304°
2026-04-25 05:00 45.95646 -95.56843 6546 ft 122 kts 304°
2026-04-25 05:00 45.96156 -95.57824 6744 ft 124 kts 303°
2026-04-25 05:00 45.96675 -95.58823 6944 ft 126 kts 303°
2026-04-25 05:00 45.97203 -95.59836 7139 ft 128 kts 303°
2026-04-25 05:01 45.97740 -95.60867 7333 ft 129 kts 303°
2026-04-25 05:01 45.98278 -95.61905 7529 ft 130 kts 303°
2026-04-25 05:01 45.98819 -95.62946 7727 ft 131 kts 302°
2026-04-25 05:01 45.99364 -95.63993 7933 ft 131 kts 302°
2026-04-25 05:02 45.99911 -95.65043 8134 ft 131 kts 302°
2026-04-25 05:02 46.00460 -95.66098 8337 ft 132 kts 302°
2026-04-25 05:02 46.01007 -95.67159 8545 ft 133 kts 301°
2026-04-25 05:02 46.01562 -95.68226 8754 ft 134 kts 301°
2026-04-25 05:03 46.02118 -95.69301 8965 ft 134 kts 301°
2026-04-25 05:03 46.02678 -95.70379 9177 ft 135 kts 301°
2026-04-25 05:03 46.03240 -95.71462 9402 ft 135 kts 300°
2026-04-25 05:03 46.03804 -95.72553 9615 ft 136 kts 299°
2026-04-25 05:04 46.04369 -95.73644 9823 ft 136 kts 299°
2026-04-25 05:04 46.04934 -95.74742 9978 ft 140 kts 298°
2026-04-25 05:04 46.05544 -95.75933 9946 ft 155 kts 300°
2026-04-25 05:04 46.06208 -95.77214 9929 ft 164 kts 300°
2026-04-25 05:05 46.06906 -95.78553 9917 ft 170 kts 301°
2026-04-25 05:05 46.07621 -95.79930 9910 ft 173 kts 301°
2026-04-25 05:05 46.08347 -95.81328 9908 ft 176 kts 301°
2026-04-25 05:05 46.09079 -95.82747 9908 ft 177 kts 300°
2026-04-25 05:06 46.09813 -95.84171 9940 ft 177 kts 300°
2026-04-25 05:06 46.10545 -95.85590 9961 ft 176 kts 300°
2026-04-25 05:06 46.11277 -95.87015 9971 ft 177 kts 301°
2026-04-25 05:06 46.12013 -95.88443 9977 ft 178 kts 301°
2026-04-25 05:07 46.12741 -95.89853 9988 ft 178 kts 301°
2026-04-25 05:07 46.13481 -95.91290 9990 ft 179 kts 300°
2026-04-25 05:07 46.14221 -95.92731 9990 ft 179 kts 300°
2026-04-25 05:07 46.14962 -95.94176 9991 ft 180 kts 300°
2026-04-25 05:08 46.15706 -95.95624 9994 ft 180 kts 300°
2026-04-25 05:08 46.16453 -95.97082 9994 ft 181 kts 300°
2026-04-25 05:08 46.17199 -95.98537 9995 ft 181 kts 300°
2026-04-25 05:08 46.17942 -95.99999 9992 ft 180 kts 299°
2026-04-25 05:09 46.18684 -96.01458 9995 ft 180 kts 299°
2026-04-25 05:09 46.19425 -96.02916 9993 ft 180 kts 299°
2026-04-25 05:09 46.20170 -96.04378 9992 ft 181 kts 299°
2026-04-25 05:09 46.20913 -96.05837 10001 ft 180 kts 299°
2026-04-25 05:10 46.21659 -96.07297 9996 ft 181 kts 299°
2026-04-25 05:10 46.22405 -96.08758 9996 ft 181 kts 299°
2026-04-25 05:10 46.23152 -96.10223 9992 ft 181 kts 299°
2026-04-25 05:10 46.23899 -96.11687 9993 ft 181 kts 299°
2026-04-25 05:11 46.24646 -96.13147 9991 ft 181 kts 299°
2026-04-25 05:11 46.25392 -96.14610 9993 ft 181 kts 299°
2026-04-25 05:11 46.26137 -96.16073 9991 ft 180 kts 299°
2026-04-25 05:12 46.27624 -96.18990 9991 ft 180 kts 299°
2026-04-25 05:12 46.28366 -96.20447 9991 ft 180 kts 299°
2026-04-25 05:12 46.29107 -96.21905 9992 ft 180 kts 299°
2026-04-25 05:12 46.29849 -96.23367 9993 ft 180 kts 298°
2026-04-25 05:13 46.30591 -96.24826 9994 ft 180 kts 299°
2026-04-25 05:13 46.31334 -96.26287 9994 ft 180 kts 299°
2026-04-25 05:13 46.32074 -96.27744 9993 ft 180 kts 299°
2026-04-25 05:13 46.32817 -96.29206 9993 ft 180 kts 299°
2026-04-25 05:14 46.33558 -96.30665 9993 ft 180 kts 299°
2026-04-25 05:14 46.34299 -96.32127 9993 ft 180 kts 298°
2026-04-25 05:14 46.35039 -96.33591 9993 ft 180 kts 298°
2026-04-25 05:15 46.36518 -96.36512 9993 ft 180 kts 298°
2026-04-25 05:15 46.37257 -96.37974 9993 ft 180 kts 298°
2026-04-25 05:15 46.37996 -96.39435 9994 ft 180 kts 298°
2026-04-25 05:15 46.38735 -96.40904 9995 ft 180 kts 298°
2026-04-25 05:16 46.39475 -96.42369 10003 ft 180 kts 298°
2026-04-25 05:16 46.40208 -96.43818 10003 ft 180 kts 298°
2026-04-25 05:16 46.40959 -96.45304 10003 ft 180 kts 298°
2026-04-25 05:16 46.41699 -96.46773 10001 ft 180 kts 298°
2026-04-25 05:17 46.42438 -96.48241 10000 ft 180 kts 297°
2026-04-25 05:17 46.43169 -96.49693 9998 ft 181 kts 298°
2026-04-25 05:17 46.43908 -96.51159 9998 ft 180 kts 298°
2026-04-25 05:17 46.44646 -96.52625 9999 ft 180 kts 297°
2026-04-25 05:18 46.45382 -96.54090 9999 ft 180 kts 298°
2026-04-25 05:18 46.46119 -96.55555 10000 ft 180 kts 297°
2026-04-25 05:18 46.46858 -96.57023 9999 ft 180 kts 298°
2026-04-25 05:18 46.47595 -96.58492 9999 ft 180 kts 297°
2026-04-25 05:19 46.48332 -96.59960 9999 ft 180 kts 297°
2026-04-25 05:19 46.49066 -96.61427 9999 ft 180 kts 297°
2026-04-25 05:19 46.49803 -96.62896 9999 ft 180 kts 297°
2026-04-25 05:19 46.50538 -96.64364 10000 ft 180 kts 297°
2026-04-25 05:20 46.51273 -96.65832 9999 ft 180 kts 297°
2026-04-25 05:20 46.52008 -96.67301 9999 ft 180 kts 297°
2026-04-25 05:20 46.52743 -96.68770 9999 ft 180 kts 297°
2026-04-25 05:20 46.53477 -96.70238 10000 ft 180 kts 297°
2026-04-25 05:21 46.54212 -96.71708 9999 ft 180 kts 297°
2026-04-25 05:21 46.54946 -96.73180 10000 ft 180 kts 297°
2026-04-25 05:21 46.55681 -96.74650 10001 ft 180 kts 297°
2026-04-25 05:21 46.56416 -96.76126 10003 ft 180 kts 297°
2026-04-25 05:22 46.57151 -96.77600 10002 ft 180 kts 297°
2026-04-25 05:22 46.57885 -96.79075 10000 ft 180 kts 297°
2026-04-25 05:22 46.58619 -96.80549 10002 ft 180 kts 297°
2026-04-25 05:22 46.59349 -96.82020 10002 ft 179 kts 297°
2026-04-25 05:23 46.60077 -96.83491 10002 ft 179 kts 297°
2026-04-25 05:23 46.60809 -96.84959 9999 ft 179 kts 297°
2026-04-25 05:23 46.61540 -96.86422 9997 ft 179 kts 297°
2026-04-25 05:23 46.62271 -96.87884 10000 ft 179 kts 297°
2026-04-25 05:24 46.62993 -96.89336 10009 ft 180 kts 297°
2026-04-25 05:24 46.63726 -96.90817 10003 ft 181 kts 297°
2026-04-25 05:24 46.64461 -96.92300 10001 ft 181 kts 297°
2026-04-25 05:24 46.65195 -96.93780 10001 ft 180 kts 297°
2026-04-25 05:25 46.65923 -96.95264 10001 ft 179 kts 295°
2026-04-25 05:25 46.66430 -96.96878 10001 ft 173 kts 281°
2026-04-25 05:25 46.66758 -96.98560 9993 ft 172 kts 278°
2026-04-25 05:25 46.67056 -97.00245 9993 ft 172 kts 277°
2026-04-25 05:26 46.67346 -97.01926 9993 ft 171 kts 277°
2026-04-25 05:26 46.67634 -97.03600 9994 ft 171 kts 277°
2026-04-25 05:26 46.67926 -97.05278 9995 ft 171 kts 277°
2026-04-25 05:26 46.68220 -97.06953 9995 ft 171 kts 277°
2026-04-25 05:27 46.68516 -97.08632 9996 ft 171 kts 277°
2026-04-25 05:27 46.68818 -97.10307 9998 ft 171 kts 278°
2026-04-25 05:27 46.69118 -97.11974 9999 ft 170 kts 277°
2026-04-25 05:27 46.69418 -97.13645 9998 ft 171 kts 277°
2026-04-25 05:28 46.69718 -97.15325 9998 ft 171 kts 277°
2026-04-25 05:28 46.70018 -97.16997 9997 ft 171 kts 278°
2026-04-25 05:28 46.70318 -97.18669 9997 ft 170 kts 277°
2026-04-25 05:28 46.70617 -97.20342 10001 ft 171 kts 277°
2026-04-25 05:29 46.70915 -97.22019 10001 ft 171 kts 277°
2026-04-25 05:29 46.71214 -97.23694 10002 ft 171 kts 277°
2026-04-25 05:29 46.71511 -97.25374 10002 ft 172 kts 278°
2026-04-25 05:29 46.71811 -97.27058 10001 ft 171 kts 277°
2026-04-25 05:30 46.72111 -97.28739 10001 ft 171 kts 277°
2026-04-25 05:30 46.72410 -97.30419 10000 ft 171 kts 278°
2026-04-25 05:30 46.72710 -97.32088 10001 ft 170 kts 277°
2026-04-25 05:30 46.73006 -97.33760 10003 ft 171 kts 277°
2026-04-25 05:31 46.73306 -97.35441 10007 ft 172 kts 277°
2026-04-25 05:31 46.73601 -97.37105 9996 ft 172 kts 277°
2026-04-25 05:31 46.73899 -97.38796 10007 ft 173 kts 277°
2026-04-25 05:31 46.74196 -97.40492 10000 ft 173 kts 277°
2026-04-25 05:32 46.74493 -97.42195 10007 ft 174 kts 277°
2026-04-25 05:32 46.74794 -97.43897 10006 ft 173 kts 277°
2026-04-25 05:32 46.75094 -97.45597 10002 ft 174 kts 277°
2026-04-25 05:32 46.75396 -97.47302 10007 ft 173 kts 277°
2026-04-25 05:33 46.75698 -97.49007 10005 ft 174 kts 277°
2026-04-25 05:33 46.75997 -97.50712 9999 ft 173 kts 277°
2026-04-25 05:33 46.76297 -97.52419 10002 ft 174 kts 277°
2026-04-25 05:33 46.76597 -97.54127 10009 ft 174 kts 277°
2026-04-25 05:34 46.76897 -97.55838 10008 ft 173 kts 277°
2026-04-25 05:34 46.77195 -97.57539 10003 ft 173 kts 277°
2026-04-25 05:34 46.77394 -97.58659 9998 ft 172 kts 277°
2026-04-25 05:34 46.77694 -97.60341 10003 ft 171 kts 277°
2026-04-25 05:35 46.78000 -97.62020 10007 ft 172 kts 277°
2026-04-25 05:35 46.78307 -97.63715 10006 ft 172 kts 278°
2026-04-25 05:35 46.78601 -97.65407 10000 ft 172 kts 277°
2026-04-25 05:35 46.78885 -97.67114 10003 ft 175 kts 277°
2026-04-25 05:36 46.79175 -97.68850 9995 ft 175 kts 277°
2026-04-25 05:36 46.79462 -97.70586 10004 ft 176 kts 276°
2026-04-25 05:36 46.79752 -97.72288 9999 ft 172 kts 277°
2026-04-25 05:36 46.80053 -97.73965 9985 ft 170 kts 277°
2026-04-25 05:37 46.80349 -97.75646 9994 ft 171 kts 277°
2026-04-25 05:37 46.80640 -97.77329 10000 ft 172 kts 277°
2026-04-25 05:37 46.80930 -97.79022 10001 ft 172 kts 277°
2026-04-25 05:37 46.81225 -97.80720 10001 ft 173 kts 277°
2026-04-25 05:38 46.81520 -97.82424 9998 ft 174 kts 277°
2026-04-25 05:38 46.81815 -97.84138 9986 ft 174 kts 277°
2026-04-25 05:38 46.82108 -97.85849 9995 ft 173 kts 277°
2026-04-25 05:38 46.82401 -97.87550 9987 ft 172 kts 277°
2026-04-25 05:39 46.82695 -97.89248 9992 ft 173 kts 277°
2026-04-25 05:39 46.82988 -97.90948 9996 ft 172 kts 277°
2026-04-25 05:39 46.83279 -97.92645 9996 ft 173 kts 277°
2026-04-25 05:39 46.83560 -97.94319 9996 ft 172 kts 277°
2026-04-25 05:40 46.83848 -97.96022 9997 ft 174 kts 276°
2026-04-25 05:40 46.84143 -97.97739 9994 ft 174 kts 277°
2026-04-25 05:40 46.84432 -97.99446 9996 ft 172 kts 276°
2026-04-25 05:40 46.84711 -98.01126 9995 ft 169 kts 276°
2026-04-25 05:41 46.85000 -98.02806 9996 ft 171 kts 277°
2026-04-25 05:41 46.85293 -98.04499 9995 ft 173 kts 277°
2026-04-25 05:41 46.85593 -98.06191 9994 ft 171 kts 277°
2026-04-25 05:41 46.85882 -98.07869 9985 ft 172 kts 276°
2026-04-25 05:42 46.86171 -98.09582 9995 ft 175 kts 277°
2026-04-25 05:42 46.86463 -98.11325 10000 ft 176 kts 277°
2026-04-25 05:42 46.86752 -98.13059 9995 ft 176 kts 276°
2026-04-25 05:42 46.87040 -98.14791 9998 ft 175 kts 276°
2026-04-25 05:43 46.87326 -98.16529 9998 ft 176 kts 276°
2026-04-25 05:43 46.87626 -98.18265 9998 ft 175 kts 277°
2026-04-25 05:43 46.87917 -98.19988 10008 ft 173 kts 277°
2026-04-25 05:43 46.88207 -98.21700 10008 ft 174 kts 277°
2026-04-25 05:44 46.88499 -98.23417 10019 ft 175 kts 277°
2026-04-25 05:44 46.88791 -98.25139 10014 ft 174 kts 277°
2026-04-25 05:44 46.89085 -98.26857 10009 ft 174 kts 277°
2026-04-25 05:44 46.89375 -98.28574 10007 ft 174 kts 277°
2026-04-25 05:45 46.89665 -98.30294 10012 ft 174 kts 277°
2026-04-25 05:45 46.89885 -98.32016 10012 ft 170 kts 268°
2026-04-25 05:45 46.89868 -98.33731 10011 ft 168 kts 261°
2026-04-25 05:45 46.89787 -98.35436 10009 ft 168 kts 261°
2026-04-25 05:46 46.89694 -98.37138 10005 ft 168 kts 260°
2026-04-25 05:46 46.89599 -98.38840 10005 ft 168 kts 260°
2026-04-25 05:46 46.89507 -98.40540 10005 ft 168 kts 260°
2026-04-25 05:46 46.89417 -98.42239 10003 ft 168 kts 260°
2026-04-25 05:47 46.89327 -98.43937 9983 ft 167 kts 260°
2026-04-25 05:47 46.89237 -98.45637 9976 ft 168 kts 261°
2026-04-25 05:47 46.89152 -98.47339 9981 ft 168 kts 261°
2026-04-25 05:47 46.89068 -98.49041 9980 ft 168 kts 261°
2026-04-25 05:48 46.88983 -98.50742 9978 ft 168 kts 261°
2026-04-25 05:48 46.88898 -98.52444 9976 ft 168 kts 261°
2026-04-25 05:48 46.88813 -98.54143 9976 ft 168 kts 261°
2026-04-25 05:48 46.88728 -98.55850 9974 ft 168 kts 261°
2026-04-25 05:49 46.88643 -98.57553 9975 ft 168 kts 261°
2026-04-25 05:49 46.88556 -98.59255 9974 ft 168 kts 261°
2026-04-25 05:49 46.88466 -98.60958 9978 ft 168 kts 261°
2026-04-25 05:49 46.88374 -98.62658 9965 ft 168 kts 261°
2026-04-25 05:50 46.88287 -98.64359 9968 ft 167 kts 261°
2026-04-25 05:50 46.88201 -98.66052 9977 ft 167 kts 261°
2026-04-25 05:50 46.88115 -98.67754 9966 ft 168 kts 261°
2026-04-25 05:50 46.88028 -98.69452 9969 ft 168 kts 261°
2026-04-25 05:51 46.87941 -98.71148 9970 ft 168 kts 261°
2026-04-25 05:51 46.87852 -98.72844 9976 ft 167 kts 261°
2026-04-25 05:51 46.87763 -98.74542 9974 ft 167 kts 261°
2026-04-25 05:51 46.87675 -98.76235 9976 ft 167 kts 261°
2026-04-25 05:52 46.87586 -98.77930 9976 ft 167 kts 261°
2026-04-25 05:52 46.87498 -98.79625 9975 ft 167 kts 261°
2026-04-25 05:52 46.87409 -98.81322 9968 ft 167 kts 261°
2026-04-25 05:52 46.87317 -98.83018 9976 ft 168 kts 261°
2026-04-25 05:53 46.87227 -98.84717 9979 ft 168 kts 261°
2026-04-25 05:53 46.87138 -98.86411 9979 ft 167 kts 261°
2026-04-25 05:53 46.87048 -98.88103 9976 ft 168 kts 261°
2026-04-25 05:53 46.86957 -98.89798 9982 ft 168 kts 261°
2026-04-25 05:54 46.86862 -98.91502 9977 ft 168 kts 261°
2026-04-25 05:54 46.86766 -98.93193 9983 ft 166 kts 261°
2026-04-25 05:54 46.86589 -98.96558 9990 ft 167 kts 261°
2026-04-25 05:55 46.86500 -98.98254 9991 ft 168 kts 261°
2026-04-25 05:55 46.86411 -98.99952 9992 ft 168 kts 261°
2026-04-25 05:55 46.86316 -99.01650 9998 ft 168 kts 263°
2026-04-25 05:55 46.86224 -99.03326 9996 ft 168 kts 263°
2026-04-25 05:56 46.86131 -99.05026 9996 ft 168 kts 263°
2026-04-25 05:56 46.86038 -99.06752 9997 ft 168 kts 263°
2026-04-25 05:56 46.85946 -99.08457 9996 ft 169 kts 263°
2026-04-25 05:56 46.85855 -99.10162 9999 ft 168 kts 263°
2026-04-25 05:57 46.85762 -99.11845 10006 ft 168 kts 263°
2026-04-25 05:57 46.85663 -99.13547 10007 ft 168 kts 263°
2026-04-25 05:57 46.85566 -99.15246 10001 ft 168 kts 263°
2026-04-25 05:57 46.85471 -99.16952 10009 ft 168 kts 263°
2026-04-25 05:58 46.85375 -99.18650 10010 ft 168 kts 263°
2026-04-25 05:58 46.85281 -99.20347 10011 ft 168 kts 263°
2026-04-25 05:58 46.85185 -99.22051 10012 ft 167 kts 263°
2026-04-25 05:58 46.85090 -99.23740 10005 ft 166 kts 263°
2026-04-25 05:59 46.84997 -99.25426 10011 ft 166 kts 263°
2026-04-25 05:59 46.84896 -99.27104 10015 ft 166 kts 263°
2026-04-25 05:59 46.84801 -99.28791 10011 ft 166 kts 263°
2026-04-25 05:59 46.84707 -99.30476 10011 ft 166 kts 263°
2026-04-25 06:00 46.84610 -99.32152 10007 ft 165 kts 263°
2026-04-25 06:00 46.84512 -99.33823 10009 ft 165 kts 263°
2026-04-25 06:00 46.84417 -99.35493 10011 ft 166 kts 263°
2026-04-25 06:00 46.84320 -99.37172 10012 ft 166 kts 263°
2026-04-25 06:01 46.84223 -99.38850 10014 ft 166 kts 263°
2026-04-25 06:01 46.84124 -99.40538 10016 ft 167 kts 263°
2026-04-25 06:01 46.84026 -99.42224 10019 ft 167 kts 264°
2026-04-25 06:01 46.83927 -99.43901 10012 ft 165 kts 264°
2026-04-25 06:02 46.83833 -99.45568 10011 ft 164 kts 264°
2026-04-25 06:02 46.83736 -99.47231 10011 ft 164 kts 264°
2026-04-25 06:02 46.83636 -99.48886 10011 ft 163 kts 263°
2026-04-25 06:02 46.83535 -99.50537 10014 ft 163 kts 264°
2026-04-25 06:03 46.83438 -99.52186 10018 ft 163 kts 264°
2026-04-25 06:03 46.83339 -99.53835 10018 ft 163 kts 263°
2026-04-25 06:03 46.83240 -99.55490 10020 ft 164 kts 263°
2026-04-25 06:03 46.83142 -99.57149 10017 ft 164 kts 263°
2026-04-25 06:04 46.83043 -99.58810 10016 ft 164 kts 264°
2026-04-25 06:04 46.82945 -99.60470 10011 ft 164 kts 264°
2026-04-25 06:04 46.82847 -99.62127 10016 ft 164 kts 263°
2026-04-25 06:04 46.82749 -99.63778 10019 ft 164 kts 263°
2026-04-25 06:05 46.82652 -99.65437 10022 ft 164 kts 264°
2026-04-25 06:05 46.82556 -99.67074 10021 ft 164 kts 263°
2026-04-25 06:05 46.82455 -99.68727 10017 ft 163 kts 263°
2026-04-25 06:05 46.82355 -99.70376 10020 ft 163 kts 263°
2026-04-25 06:06 46.82256 -99.72029 10021 ft 163 kts 263°
2026-04-25 06:06 46.82156 -99.73685 10021 ft 164 kts 263°
2026-04-25 06:06 46.82059 -99.75346 10022 ft 164 kts 263°
2026-04-25 06:06 46.81958 -99.77010 10021 ft 165 kts 263°
2026-04-25 06:07 46.81855 -99.78676 10021 ft 165 kts 263°
2026-04-25 06:07 46.81752 -99.80339 10019 ft 165 kts 263°
2026-04-25 06:07 46.81647 -99.82004 10024 ft 165 kts 264°
2026-04-25 06:07 46.81543 -99.83668 10032 ft 164 kts 264°
2026-04-25 06:08 46.81440 -99.85334 10028 ft 165 kts 264°
2026-04-25 06:08 46.81337 -99.87005 10027 ft 165 kts 264°
2026-04-25 06:08 46.81230 -99.88683 10028 ft 166 kts 265°
2026-04-25 06:08 46.81127 -99.90359 10026 ft 166 kts 264°
2026-04-25 06:09 46.81024 -99.92040 10028 ft 167 kts 264°
2026-04-25 06:09 46.80920 -99.93728 10026 ft 167 kts 265°
2026-04-25 06:09 46.80818 -99.95404 10025 ft 166 kts 264°
2026-04-25 06:09 46.80708 -99.97078 10025 ft 164 kts 264°
2026-04-25 06:10 46.80607 -99.98742 10031 ft 166 kts 264°
2026-04-25 06:10 46.80502 -100.00407 10030 ft 164 kts 264°
2026-04-25 06:10 46.80393 -100.02059 10031 ft 163 kts 264°
2026-04-25 06:10 46.80284 -100.03712 10028 ft 165 kts 264°
2026-04-25 06:11 46.80176 -100.05372 10028 ft 163 kts 264°
2026-04-25 06:11 46.80072 -100.07006 10030 ft 161 kts 264°
2026-04-25 06:11 46.79963 -100.08640 10031 ft 163 kts 264°
2026-04-25 06:11 46.79854 -100.10291 10030 ft 163 kts 264°
2026-04-25 06:12 46.79746 -100.11949 10032 ft 164 kts 264°
2026-04-25 06:12 46.79641 -100.13616 10032 ft 165 kts 264°
2026-04-25 06:12 46.79533 -100.15286 10032 ft 166 kts 264°
2026-04-25 06:12 46.79427 -100.16939 10034 ft 166 kts 264°
2026-04-25 06:13 46.79318 -100.18611 10028 ft 166 kts 264°
2026-04-25 06:13 46.79206 -100.20288 10036 ft 166 kts 264°
2026-04-25 06:13 46.79097 -100.21966 10037 ft 166 kts 264°
2026-04-25 06:14 46.78879 -100.25311 10036 ft 164 kts 264°
2026-04-25 06:14 46.78771 -100.26953 10034 ft 162 kts 264°
2026-04-25 06:14 46.78664 -100.28587 10034 ft 161 kts 264°
2026-04-25 06:14 46.78559 -100.30211 10035 ft 161 kts 264°
2026-04-25 06:15 46.78453 -100.31836 10029 ft 161 kts 264°
2026-04-25 06:15 46.78346 -100.33467 10028 ft 162 kts 264°
2026-04-25 06:15 46.78238 -100.35097 10026 ft 161 kts 264°
2026-04-25 06:15 46.78128 -100.36722 10025 ft 161 kts 264°
2026-04-25 06:16 46.78019 -100.38349 10025 ft 161 kts 264°
2026-04-25 06:16 46.77909 -100.39970 10024 ft 161 kts 264°
2026-04-25 06:16 46.77801 -100.41600 10022 ft 162 kts 264°
2026-04-25 06:16 46.77692 -100.43231 10021 ft 161 kts 264°
2026-04-25 06:17 46.77583 -100.44857 10020 ft 161 kts 264°
2026-04-25 06:17 46.77474 -100.46483 10020 ft 161 kts 264°
2026-04-25 06:17 46.77363 -100.48106 10018 ft 161 kts 264°
2026-04-25 06:17 46.77255 -100.49708 10019 ft 161 kts 264°
2026-04-25 06:18 46.77147 -100.51332 10017 ft 161 kts 264°
2026-04-25 06:18 46.77037 -100.52956 10017 ft 161 kts 264°
2026-04-25 06:18 46.76926 -100.54580 10015 ft 161 kts 263°
2026-04-25 06:18 46.76812 -100.56210 10018 ft 161 kts 264°
2026-04-25 06:19 46.76702 -100.57834 10014 ft 161 kts 264°
2026-04-25 06:19 46.76591 -100.59452 10012 ft 160 kts 264°
2026-04-25 06:19 46.76482 -100.61068 10011 ft 160 kts 264°
2026-04-25 06:19 46.76371 -100.62683 10009 ft 160 kts 264°
2026-04-25 06:20 46.76258 -100.64293 10012 ft 159 kts 263°
2026-04-25 06:20 46.76149 -100.65895 10011 ft 159 kts 265°
2026-04-25 06:20 46.76129 -100.66966 10010 ft 159 kts 270°
2026-04-25 06:20 46.76213 -100.68576 10011 ft 159 kts 273°
2026-04-25 06:21 46.76307 -100.70190 10012 ft 159 kts 272°
2026-04-25 06:21 46.76397 -100.71804 10010 ft 159 kts 272°
2026-04-25 06:21 46.76486 -100.73410 10010 ft 159 kts 272°
2026-04-25 06:21 46.76576 -100.75010 10010 ft 158 kts 272°
2026-04-25 06:22 46.76664 -100.76611 10010 ft 159 kts 272°
2026-04-25 06:22 46.76752 -100.78214 10011 ft 159 kts 272°
2026-04-25 06:22 46.76839 -100.79815 10010 ft 159 kts 272°
2026-04-25 06:22 46.76925 -100.81421 10011 ft 158 kts 272°
2026-04-25 06:23 46.77015 -100.83020 10013 ft 158 kts 272°
2026-04-25 06:23 46.77101 -100.84624 10013 ft 159 kts 272°
2026-04-25 06:23 46.77187 -100.86225 10014 ft 159 kts 272°
2026-04-25 06:23 46.77270 -100.87839 10015 ft 160 kts 272°
2026-04-25 06:24 46.77353 -100.89459 10010 ft 159 kts 272°
2026-04-25 06:24 46.77439 -100.91076 10012 ft 160 kts 272°
2026-04-25 06:24 46.77526 -100.92689 10014 ft 159 kts 272°
2026-04-25 06:24 46.77612 -100.94301 10015 ft 159 kts 272°
2026-04-25 06:25 46.77700 -100.95912 10013 ft 159 kts 272°
2026-04-25 06:25 46.77788 -100.97520 10014 ft 159 kts 272°
2026-04-25 06:25 46.77875 -100.99134 10015 ft 159 kts 272°
2026-04-25 06:25 46.77959 -101.00724 10018 ft 159 kts 272°
2026-04-25 06:26 46.78045 -101.02356 10021 ft 159 kts 272°
2026-04-25 06:26 46.78128 -101.03950 10021 ft 160 kts 272°
2026-04-25 06:26 46.78214 -101.05588 10019 ft 160 kts 272°
2026-04-25 06:26 46.78297 -101.07182 10017 ft 159 kts 272°
2026-04-25 06:27 46.78381 -101.08787 10019 ft 158 kts 272°
2026-04-25 06:27 46.78465 -101.10385 10019 ft 158 kts 272°
2026-04-25 06:27 46.78549 -101.11988 10022 ft 158 kts 272°
2026-04-25 06:27 46.78633 -101.13587 10023 ft 158 kts 272°
2026-04-25 06:28 46.78716 -101.15186 10023 ft 159 kts 271°
2026-04-25 06:28 46.78795 -101.16791 10019 ft 159 kts 271°
2026-04-25 06:28 46.78877 -101.18397 10022 ft 159 kts 272°
2026-04-25 06:28 46.78961 -101.19999 10023 ft 159 kts 272°
2026-04-25 06:29 46.79044 -101.21606 10027 ft 159 kts 271°
2026-04-25 06:29 46.79126 -101.23215 10028 ft 159 kts 271°
2026-04-25 06:29 46.79206 -101.24824 10025 ft 159 kts 271°
2026-04-25 06:29 46.79286 -101.26429 10026 ft 158 kts 271°
2026-04-25 06:30 46.79296 -101.28033 10028 ft 158 kts 266°
2026-04-25 06:30 46.79250 -101.29640 10026 ft 159 kts 266°
2026-04-25 06:30 46.79199 -101.31245 10026 ft 159 kts 266°
2026-04-25 06:30 46.79145 -101.32849 10025 ft 158 kts 266°
2026-04-25 06:31 46.79091 -101.34446 10026 ft 157 kts 266°
2026-04-25 06:31 46.79039 -101.36041 10028 ft 158 kts 266°
2026-04-25 06:31 46.78984 -101.37639 10028 ft 158 kts 266°
2026-04-25 06:31 46.78932 -101.39242 10030 ft 158 kts 266°
2026-04-25 06:32 46.78877 -101.40833 10030 ft 157 kts 265°
2026-04-25 06:32 46.78823 -101.42427 10033 ft 158 kts 266°
2026-04-25 06:32 46.78772 -101.44032 10029 ft 158 kts 266°
2026-04-25 06:32 46.78719 -101.45636 10028 ft 158 kts 266°
2026-04-25 06:33 46.78666 -101.47242 10023 ft 158 kts 266°
2026-04-25 06:33 46.78614 -101.48820 10022 ft 158 kts 266°
2026-04-25 06:33 46.78556 -101.50418 10026 ft 157 kts 265°
2026-04-25 06:33 46.78500 -101.52036 10024 ft 158 kts 266°
2026-04-25 06:34 46.78448 -101.53611 10032 ft 158 kts 266°
2026-04-25 06:34 46.78395 -101.55205 10028 ft 157 kts 266°
2026-04-25 06:34 46.78344 -101.56795 10030 ft 157 kts 266°
2026-04-25 06:34 46.78292 -101.58384 10030 ft 157 kts 266°
2026-04-25 06:35 46.78237 -101.59968 10028 ft 156 kts 266°
2026-04-25 06:35 46.78183 -101.61557 10027 ft 157 kts 265°
2026-04-25 06:35 46.78126 -101.63151 10020 ft 157 kts 265°
2026-04-25 06:35 46.78070 -101.64737 10018 ft 156 kts 266°
2026-04-25 06:36 46.78017 -101.66319 10024 ft 156 kts 266°
2026-04-25 06:36 46.77964 -101.67902 10024 ft 156 kts 266°
2026-04-25 06:36 46.77910 -101.69483 10029 ft 156 kts 266°
2026-04-25 06:36 46.77856 -101.71066 10028 ft 156 kts 266°
2026-04-25 06:37 46.77800 -101.72651 10027 ft 156 kts 265°
2026-04-25 06:37 46.77744 -101.74235 10028 ft 156 kts 265°
2026-04-25 06:37 46.77687 -101.75823 10027 ft 157 kts 265°
2026-04-25 06:37 46.77627 -101.77410 10028 ft 157 kts 265°
2026-04-25 06:38 46.77570 -101.78998 10028 ft 157 kts 266°
2026-04-25 06:38 46.77513 -101.80584 10026 ft 157 kts 265°
2026-04-25 06:38 46.77457 -101.82170 10030 ft 155 kts 265°
2026-04-25 06:38 46.77402 -101.83735 10025 ft 154 kts 265°
2026-04-25 06:39 46.77344 -101.85280 10025 ft 155 kts 265°
2026-04-25 06:39 46.77285 -101.86866 10021 ft 154 kts 265°
2026-04-25 06:39 46.77229 -101.88405 10018 ft 154 kts 265°
2026-04-25 06:39 46.77172 -101.89976 10016 ft 152 kts 265°
2026-04-25 06:40 46.77115 -101.91516 10022 ft 152 kts 265°
2026-04-25 06:40 46.77059 -101.93040 10022 ft 152 kts 265°
2026-04-25 06:40 46.77003 -101.94580 10021 ft 152 kts 265°
2026-04-25 06:40 46.76946 -101.96115 10021 ft 152 kts 265°
2026-04-25 06:41 46.76886 -101.97650 10018 ft 152 kts 265°
2026-04-25 06:41 46.76829 -101.99189 10017 ft 152 kts 265°
2026-04-25 06:41 46.76771 -102.00732 10018 ft 152 kts 265°
2026-04-25 06:41 46.76710 -102.02272 10017 ft 152 kts 265°
2026-04-25 06:42 46.76652 -102.03814 10015 ft 152 kts 265°
2026-04-25 06:42 46.76595 -102.05352 10020 ft 153 kts 265°
2026-04-25 06:42 46.76538 -102.06897 10018 ft 153 kts 265°
2026-04-25 06:42 46.76482 -102.08448 10020 ft 153 kts 265°
2026-04-25 06:43 46.76423 -102.09999 10017 ft 153 kts 265°
2026-04-25 06:43 46.76360 -102.11545 10021 ft 153 kts 265°
2026-04-25 06:43 46.76297 -102.13097 10020 ft 154 kts 265°
2026-04-25 06:43 46.76237 -102.14650 10021 ft 154 kts 265°
2026-04-25 06:44 46.76176 -102.16201 10013 ft 153 kts 265°
2026-04-25 06:44 46.76116 -102.17745 10015 ft 152 kts 265°
2026-04-25 06:44 46.76061 -102.19287 10019 ft 153 kts 265°
2026-04-25 06:44 46.75999 -102.20833 10020 ft 152 kts 264°
2026-04-25 06:45 46.75930 -102.22361 10020 ft 151 kts 265°
2026-04-25 06:45 46.75864 -102.23895 10018 ft 152 kts 265°
2026-04-25 06:45 46.75804 -102.25437 10016 ft 152 kts 265°
2026-04-25 06:45 46.75740 -102.26981 10018 ft 155 kts 265°
2026-04-25 06:46 46.75675 -102.28526 10022 ft 152 kts 265°
2026-04-25 06:46 46.75617 -102.30057 10020 ft 150 kts 265°
2026-04-25 06:46 46.75553 -102.31558 10021 ft 151 kts 265°
2026-04-25 06:46 46.75494 -102.33111 10019 ft 154 kts 265°
2026-04-25 06:47 46.75433 -102.34675 10015 ft 155 kts 265°
2026-04-25 06:47 46.75370 -102.36233 10007 ft 154 kts 265°
2026-04-25 06:47 46.75319 -102.37773 10005 ft 151 kts 265°
2026-04-25 06:47 46.75268 -102.39335 10006 ft 156 kts 265°
2026-04-25 06:48 46.75199 -102.40897 10004 ft 153 kts 265°
2026-04-25 06:48 46.75128 -102.42440 9995 ft 152 kts 265°
2026-04-25 06:48 46.75062 -102.43979 9999 ft 153 kts 265°
2026-04-25 06:48 46.74994 -102.45526 9995 ft 152 kts 265°
2026-04-25 06:49 46.74930 -102.47068 9991 ft 153 kts 265°
2026-04-25 06:49 46.74865 -102.48616 9989 ft 153 kts 265°
2026-04-25 06:49 46.74801 -102.50160 9986 ft 153 kts 265°
2026-04-25 06:49 46.74734 -102.51709 9982 ft 153 kts 265°
2026-04-25 06:50 46.74667 -102.53254 9978 ft 153 kts 265°
2026-04-25 06:50 46.74600 -102.54803 9976 ft 153 kts 265°
2026-04-25 06:50 46.74534 -102.56350 9976 ft 153 kts 265°
2026-04-25 06:50 46.74466 -102.57899 9974 ft 153 kts 265°
2026-04-25 06:51 46.74400 -102.59445 9973 ft 152 kts 265°
2026-04-25 06:51 46.74334 -102.60982 9970 ft 152 kts 265°
2026-04-25 06:51 46.74269 -102.62503 9967 ft 152 kts 265°
2026-04-25 06:51 46.74204 -102.64066 9965 ft 153 kts 265°
2026-04-25 06:52 46.74138 -102.65590 9963 ft 152 kts 265°
2026-04-25 06:52 46.74073 -102.67131 9961 ft 152 kts 265°
2026-04-25 06:52 46.74008 -102.68674 9957 ft 153 kts 264°
2026-04-25 06:52 46.73936 -102.70212 9956 ft 152 kts 265°
2026-04-25 06:53 46.73864 -102.71753 9957 ft 153 kts 265°
2026-04-25 06:53 46.73793 -102.73297 9956 ft 153 kts 265°
2026-04-25 06:53 46.73724 -102.74849 9956 ft 153 kts 265°
2026-04-25 06:53 46.73660 -102.76394 9954 ft 152 kts 265°
2026-04-25 06:54 46.73596 -102.77935 9955 ft 152 kts 265°
2026-04-25 06:54 46.73526 -102.79474 9957 ft 152 kts 265°
2026-04-25 06:54 46.73455 -102.81010 9956 ft 152 kts 265°
2026-04-25 06:54 46.73387 -102.82548 9954 ft 152 kts 265°
2026-04-25 06:55 46.73318 -102.84088 9955 ft 152 kts 265°
2026-04-25 06:55 46.73250 -102.85623 9954 ft 151 kts 265°
2026-04-25 06:55 46.73183 -102.87154 9954 ft 152 kts 265°
2026-04-25 06:55 46.73115 -102.88687 9959 ft 152 kts 265°
2026-04-25 06:56 46.73043 -102.90223 9959 ft 152 kts 265°
2026-04-25 06:56 46.72970 -102.91763 9959 ft 153 kts 265°
2026-04-25 06:56 46.72900 -102.93302 9963 ft 152 kts 265°
2026-04-25 06:56 46.72828 -102.94848 9967 ft 153 kts 265°
2026-04-25 06:57 46.72754 -102.96390 10024 ft 153 kts 265°
2026-04-25 06:57 46.72685 -102.97938 10020 ft 153 kts 265°
2026-04-25 06:57 46.72615 -102.99479 10020 ft 152 kts 265°
2026-04-25 06:57 46.72544 -103.01013 10018 ft 151 kts 265°
2026-04-25 06:58 46.72473 -103.02519 10015 ft 151 kts 265°
2026-04-25 06:58 46.72403 -103.04045 10016 ft 151 kts 265°
2026-04-25 06:58 46.72333 -103.05581 10018 ft 152 kts 265°
2026-04-25 06:58 46.72259 -103.07106 10024 ft 150 kts 265°
2026-04-25 06:59 46.72186 -103.08627 10022 ft 151 kts 265°
2026-04-25 06:59 46.72111 -103.10151 10036 ft 151 kts 265°
2026-04-25 06:59 46.72038 -103.11682 10033 ft 152 kts 265°
2026-04-25 06:59 46.71966 -103.13214 10029 ft 152 kts 265°
2026-04-25 07:00 46.71892 -103.14744 10030 ft 151 kts 265°
2026-04-25 07:00 46.71817 -103.16272 10030 ft 151 kts 265°
2026-04-25 07:00 46.71745 -103.17802 10026 ft 151 kts 265°
2026-04-25 07:00 46.71673 -103.19326 10026 ft 151 kts 265°
2026-04-25 07:01 46.71601 -103.20851 10028 ft 151 kts 265°
2026-04-25 07:01 46.71526 -103.22374 10028 ft 151 kts 265°
2026-04-25 07:01 46.71451 -103.23899 10028 ft 151 kts 265°
2026-04-25 07:01 46.71378 -103.25421 10029 ft 150 kts 265°
2026-04-25 07:02 46.71304 -103.26938 10034 ft 150 kts 265°
2026-04-25 07:02 46.71230 -103.28458 10036 ft 151 kts 265°
2026-04-25 07:02 46.71153 -103.29977 10035 ft 150 kts 265°
2026-04-25 07:02 46.71077 -103.31493 10035 ft 150 kts 265°
2026-04-25 07:03 46.71001 -103.33010 10037 ft 150 kts 265°
2026-04-25 07:03 46.70928 -103.34530 10037 ft 151 kts 265°
2026-04-25 07:03 46.70856 -103.36054 10037 ft 151 kts 265°
2026-04-25 07:03 46.70782 -103.37574 10030 ft 151 kts 265°
2026-04-25 07:04 46.70706 -103.39094 10031 ft 150 kts 265°
2026-04-25 07:04 46.70628 -103.40597 10028 ft 151 kts 265°
2026-04-25 07:04 46.70550 -103.42120 10036 ft 150 kts 265°
2026-04-25 07:04 46.70468 -103.43633 10042 ft 150 kts 265°
2026-04-25 07:05 46.70257 -103.45113 10038 ft 151 kts 250°
2026-04-25 07:05 46.69755 -103.46460 10042 ft 152 kts 243°
2026-04-25 07:05 46.69181 -103.47772 10045 ft 154 kts 242°
2026-04-25 07:05 46.68591 -103.49080 10042 ft 155 kts 242°
2026-04-25 07:06 46.67995 -103.50393 10035 ft 156 kts 242°
2026-04-25 07:06 46.67400 -103.51709 10033 ft 155 kts 243°
2026-04-25 07:06 46.66818 -103.53018 10033 ft 154 kts 243°
2026-04-25 07:06 46.66237 -103.54330 10041 ft 154 kts 243°
2026-04-25 07:07 46.65656 -103.55644 10042 ft 154 kts 243°
2026-04-25 07:07 46.65076 -103.56964 10047 ft 156 kts 243°
2026-04-25 07:07 46.64493 -103.58298 10049 ft 156 kts 243°
2026-04-25 07:07 46.63912 -103.59625 10050 ft 155 kts 243°
2026-04-25 07:08 46.63334 -103.60946 10047 ft 155 kts 243°
2026-04-25 07:08 46.62756 -103.62268 10045 ft 155 kts 243°
2026-04-25 07:08 46.62176 -103.63588 10052 ft 155 kts 243°
2026-04-25 07:08 46.61608 -103.64912 10045 ft 154 kts 243°
2026-04-25 07:09 46.61047 -103.66216 10044 ft 154 kts 243°
2026-04-25 07:09 46.60478 -103.67533 10048 ft 154 kts 243°
2026-04-25 07:09 46.59898 -103.68854 10015 ft 156 kts 243°
2026-04-25 07:09 46.59311 -103.70190 9993 ft 156 kts 243°
2026-04-25 07:10 46.58727 -103.71523 9982 ft 156 kts 243°
2026-04-25 07:10 46.58143 -103.72854 9981 ft 157 kts 243°
2026-04-25 07:10 46.57556 -103.74197 9973 ft 157 kts 243°
2026-04-25 07:10 46.57160 -103.75095 9974 ft 156 kts 243°
2026-04-25 07:11 46.56571 -103.76427 9976 ft 157 kts 243°
2026-04-25 07:11 46.55993 -103.77741 9970 ft 156 kts 243°
2026-04-25 07:11 46.55406 -103.79072 9970 ft 157 kts 243°
2026-04-25 07:11 46.54816 -103.80412 9909 ft 158 kts 243°
2026-04-25 07:12 46.54208 -103.81780 9677 ft 162 kts 242°
2026-04-25 07:12 46.52982 -103.84545 9239 ft 164 kts 242°
2026-04-25 07:12 46.52363 -103.85945 9025 ft 165 kts 242°
2026-04-25 07:13 46.51737 -103.87347 8810 ft 166 kts 242°
2026-04-25 07:13 46.51114 -103.88742 8652 ft 164 kts 242°
2026-04-25 07:13 46.50500 -103.90128 8487 ft 163 kts 243°
2026-04-25 07:13 46.49891 -103.91509 8326 ft 162 kts 243°
2026-04-25 07:14 46.49280 -103.92891 8164 ft 162 kts 243°
2026-04-25 07:14 46.48669 -103.94269 8007 ft 162 kts 243°
2026-04-25 07:14 46.48059 -103.95649 7849 ft 162 kts 243°
2026-04-25 07:14 46.47449 -103.97024 7687 ft 163 kts 243°
2026-04-25 07:15 46.46836 -103.98405 7543 ft 163 kts 243°
2026-04-25 07:15 46.46223 -103.99787 7389 ft 163 kts 243°
2026-04-25 07:15 46.45607 -104.01171 7235 ft 163 kts 243°
2026-04-25 07:15 46.44991 -104.02553 7079 ft 163 kts 243°
2026-04-25 07:16 46.44374 -104.03935 6919 ft 163 kts 243°
2026-04-25 07:16 46.43758 -104.05317 6763 ft 163 kts 243°
2026-04-25 07:16 46.43149 -104.06688 6620 ft 164 kts 243°
2026-04-25 07:16 46.42527 -104.08076 6473 ft 165 kts 243°
2026-04-25 07:17 46.41906 -104.09472 6318 ft 165 kts 243°
2026-04-25 07:17 46.41286 -104.10867 6157 ft 165 kts 243°
2026-04-25 07:17 46.40664 -104.12260 5996 ft 165 kts 243°
2026-04-25 07:17 46.40040 -104.13651 5790 ft 165 kts 243°
2026-04-25 07:18 46.39417 -104.15045 5620 ft 165 kts 243°
2026-04-25 07:18 46.38793 -104.16442 5479 ft 166 kts 242°
2026-04-25 07:18 46.38170 -104.17826 5313 ft 161 kts 242°
2026-04-25 07:18 46.37569 -104.19150 5150 ft 152 kts 243°
2026-04-25 07:19 46.37034 -104.20353 4995 ft 134 kts 244°
2026-04-25 07:19 46.36551 -104.21451 4833 ft 125 kts 244°
2026-04-25 07:19 46.36089 -104.22484 4693 ft 119 kts 245°
2026-04-25 07:19 46.35645 -104.23482 4556 ft 117 kts 244°
2026-04-25 07:20 46.35218 -104.24425 4440 ft 107 kts 245°
2026-04-25 07:20 46.34839 -104.25268 4374 ft 94 kts 245°
2026-04-25 07:20 46.34494 -104.26014 4342 ft 85 kts 236°
2026-04-25 07:20 46.33868 -104.26110 4186 ft 111 kts 167°
2026-04-25 07:21 46.33273 -104.25451 3912 ft 103 kts 142°
2026-04-25 07:21 46.33102 -104.24524 3574 ft 97 kts 49°
2026-04-25 07:21 46.33537 -104.24346 3305 ft 58 kts 314°
2026-04-25 07:21 46.33834 -104.24705 3147 ft 53 kts 304°
2026-04-25 07:22 46.34098 -104.25075 3048 ft 53 kts 306°
2026-04-25 07:22 46.34361 -104.25406 2986 ft 42 kts 319°
2026-04-25 07:22 46.34534 -104.25641 2981 ft 28 kts 316°
2026-04-25 07:22 46.34666 -104.25817 2980 ft 26 kts 319°
2026-04-25 07:23 46.34811 -104.26008 2978 ft 30 kts 318°
2026-04-25 07:23 46.34975 -104.26223 2975 ft 34 kts 319°
2026-04-25 07:23 46.35141 -104.26441 2970 ft 29 kts 318°
2026-04-25 07:23 46.35244 -104.26589 2970 ft 18 kts 284°
2026-04-25 07:24 46.35222 -104.26665 2970 ft 1 kts 264°
2026-04-25 07:24 46.35227 -104.26693 2969 ft 8 kts 298°
2026-04-25 07:24 46.35271 -104.26795 2969 ft 15 kts 301°
2026-04-25 07:24 46.35316 -104.26902 2969 ft 11 kts 299°
2026-04-25 07:25 46.35328 -104.27010 2969 ft 11 kts 315°
2026-04-25 07:25 46.35394 -104.27018 2969 ft 7 kts 70°
2026-04-25 07:25 46.35394 -104.26996 2969 ft 0 kts 94°